Dewpoint
34 34 35 35 34 32 31 32 33 32 31 31 31 31 32 33 33 33 34 33 33 32 32 32 33 33 34 35 35 35 35 36 36 37 37 37 37 38 38 39 39 40 41 42 43 43 44 44 44 44 44 44 45 45 46 46 47 47 48 48 49 49 49 49 49 50 50 49 49 49 49 49 49 49 49 49 49 49 49 49 49 49 49 50 50 51
31 31 31 32 31 31 29 31 31 31 31 30 30 29 30 30 30 30 31 31 31 30 29 29 30 31 31 32 33 33 34 35 35 35 36 36 36 36 36 37 37 38 39 39 40 41 42 43 43 43 43 44 44 44 44 45 45 46 46 47 47 48 48 48 49 49 49 49 49 49 49 49 49 48 48 48 48 48 48 48 48 48 48 49 49 50
28 28 29 31 31 31 29 30 31 31 31 30 30 30 31 30 29 29 29 29 30 30 29 28 28 28 29 30 31 32 33 34 35 35 35 35 35 36 36 36 36 36 36 37 37 38 39 40 40 41 42 43 43 43 43 44 44 44 45 45 45 46 46 47 48 48 48 48 47 47 47 47 47 47 47 47 47 47 47 47 47 48 48 49 49 49
29 28 29 30 31 31 30 30 31 31 31 31 31 31 31 31 30 29 29 29 29 30 29 28 27 27 27 28 30 31 33 34 34 35 35 35 35 35 35 35 35 35 35 36 36 36 37 38 38 39 40 40 40 41 41 42 42 43 43 43 44 44 45 46 47 47 47 46 45 45 45 45 45 46 46 46 46 47 47 47 48 48 49 49 49 49
29 28 29 29 29 29 30 30 30 30 31 30 30 30 30 30 29 29 29 29 28 28 28 28 27 26 26 27 29 31 33 33 34 34 34 34 35 35 35 35 35 35 35 36 36 36 36 37 37 37 38 38 38 38 39 39 40 40 40 41 42 43 44 45 45 45 45 44 44 44 44 44 44 44 44 45 46 46 47 48 48 49 49 49 49 49
28 29 29 29 28 28 28 28 29 29 29 28 28 29 29 29 29 29 28 28 27 27 27 27 27 27 26 27 29 31 32 33 33 33 33 34 34 34 34 35 35 35 35 35 36 36 36 36 37 37 37 37 37 38 38 38 38 39 39 40 41 42 43 44 44 44 43 43 42 42 42 42 42 43 43 44 44 45 46 47 48 48 49 49 49 49
28 29 29 28 28 28 28 28 28 28 27 27 27 27 27 28 29 29 29 28 28 27 27 27 27 27 27 28 29 30 31 31 32 32 32 33 33 33 34 34 34 35 35 35 35 35 35 36 36 36 36 37 37 37 38 38 38 39 40 40 40 41 42 42 42 42 41 41 41 41 41 41 41 41 41 42 42 43 44 45 46 47 48 48 49 49
28 28 28 27 27 27 27 27 27 28 28 27 26 26 26 26 26 27 28 28 28 27 26 26 26 26 26 27 28 28 29 29 29 30 31 31 31 32 33 33 34 34 34 34 35 35 35 35 35 35 35 35 36 36 37 37 37 38 38 39 39 39 40 40 40 40 40 40 40 40 40 40 40 40 40 40 41 41 42 43 44 45 46 46 47 48
27 26 26 27 26 26 26 26 26 27 28 27 26 25 25 24 25 25 26 26 27 27 26 26 26 26 26 26 27 27 27 27 27 28 29 29 30 31 32 32 33 33 33 33 33 34 34 34 34 34 34 34 35 35 35 35 35 36 36 36 37 37 38 38 38 39 39 39 39 39 39 39 39 39 39 40 40 40 41 42 43 43 44 45 45 46
26 26 25 26 26 26 26 25 26 27 28 27 26 26 25 24 24 24 24 25 26 26 26 26 25 25 25 26 26 26 26 27 28 29 30 29 30 31 31 31 31 32 32 32 33 33 33 33 33 33 33 34 34 34 34 34 34 34 35 35 35 35 36 36 37 37 37 38 38 38 38 38 38 38 38 39 39 39 40 40 41 42 43 43 44 44
26 26 26 26 26 26 26 26 26 26 28 27 26 26 26 25 24 24 24 24 25 26 26 26 25 25 25 25 26 26 26 26 27 28 30 30 31 31 31 31 31 31 31 32 32 32 32 33 33 33 33 33 33 34 34 34 34 34 34 34 35 35 35 35 35 36 36 36 37 37 37 37 37 38 38 38 38 39 39 39 40 40 41 42 42 43
26 26 26 26 26 26 26 26 27 27 27 26 25 24 24 25 25 25 24 24 24 24 25 25 26 26 26 25 25 25 25 25 25 26 28 29 29 29 29 29 29 30 30 31 31 31 32 32 32 33 33 33 33 33 33 33 33 34 34 34 35 35 35 35 35 36 36 36 36 37 37 37 37 38 38 38 38 38 38 39 39 39 40 40 41 41
26 26 26 26 26 26 26 26 26 26 25 24 24 23 24 25 26 26 25 25 24 25 25 25 26 26 26 26 26 25 25 25 25 26 26 27 27 27 26 26 26 27 28 29 29 30 31 31 32 32 32 32 33 33 33 33 33 34 34 35 35 35 35 36 36 36 36 36 37 37 37 37 37 37 38 38 38 38 38 38 39 39 39 40 40 40
27 27 26 26 26 26 26 26 25 24 24 24 24 25 25 26 26 26 25 25 25 25 25 25 25 25 26 26 26 26 26 25 25 25 26 26 26 26 26 26 26 26 27 27 27 29 30 31 31 31 32 32 32 32 33 33 34 34 35 35 35 35 35 35 36 36 36 36 37 37 37 37 37 37 37 37 38 38 38 38 38 38 39 39 39 40
27 26 26 26 25 25 25 25 24 24 23 24 25 26 26 26 26 26 25 24 25 25 25 24 24 24 24 26 26 27 26 25 25 25 25 26 26 27 26 26 26 26 26 26 27 28 30 31 30 30 31 31 32 32 33 33 34 34 34 34 34 34 35 35 35 35 35 36 36 36 36 37 37 37 37 37 37 37 37 38 38 38 38 39 39 39
26 25 24 24 23 23 23 23 23 23 24 25 26 26 26 25 25 25 24 24 24 24 24 23 22 22 22 25 26 27 27 26 25 24 24 25 26 27 27 26 26 26 26 26 26 27 29 30 30 30 30 31 31 32 32 33 33 33 33 33 33 34 34 34 34 34 35 35 35 36 36 36 36 36 36 37 37 37 37 37 37 38 38 38 38 39
25 24 23 22 22 22 22 23 24 24 24 25 25 26 26 26 26 25 25 25 25 25 24 23 23 22 22 23 25 27 28 26 25 25 24 24 25 26 29 28 26 26 26 26 26 27 27 28 28 29 29 30 31 32 32 32 33 33 33 33 33 33 33 34 34 34 35 35 35 35 35 36 36 36 36 36 36 37 37 37 37 37 37 38 38 38
24 23 23 22 22 22 22 23 23 23 24 24 25 26 26 26 26 26 26 26 26 25 25 25 24 23 23 22 23 25 28 26 26 26 25 24 25 26 29 28 27 26 26 26 26 27 27 27 27 28 29 31 31 32 32 33 33 33 33 33 33 33 33 33 34 34 35 35 35 35 35 35 36 36 36 36 36 36 36 37 37 37 37 37 37 38
23 23 22 22 22 22 22 22 23 23 23 24 25 26 26 27 27 27 27 27 26 26 26 26 25 25 24 23 24 26 28 28 28 27 26 25 24 25 26 26 26 26 26 26 26 27 28 28 29 30 31 32 32 32 32 33 33 32 33 33 33 33 33 33 34 34 35 35 35 35 35 35 36 36 36 36 36 36 36 36 36 36 37 37 37 37
23 23 23 23 23 23 23 23 23 24 25 26 27 27 27 27 27 26 26 27 27 27 27 26 26 26 25 25 25 26 29 30 29 27 25 23 23 23 24 25 25 25 25 25 26 28 28 29 29 30 31 31 32 32 32 32 32 32 32 32 32 33 33 33 34 34 35 35 35 35 35 35 36 36 36 36 36 36 36 36 36 36 36 36 36 36
23 23 23 23 23 23 23 23 24 26 28 29 29 28 27 26 26 26 26 26 26 26 26 26 25 25 25 25 25 26 29 29 27 25 23 22 22 22 24 25 25 25 25 26 27 28 29 28 29 29 30 31 31 31 31 32 32 32 32 32 32 32 32 33 33 34 35 35 35 35 35 35 36 36 36 36 36 36 36 36 36 36 36 36 36 36
24 23 24 25 25 25 25 25 26 28 29 29 28 26 25 25 24 24 24 24 24 23 23 23 23 23 24 24 24 25 26 26 25 23 23 22 22 22 24 25 26 25 25 25 26 26 27 27 27 28 29 30 31 31 31 31 31 31 31 31 31 32 32 32 33 34 34 35 35 35 35 35 35 36 36 36 36 36 36 36 36 35 35 35 35 35
26 25 26 26 26 26 27 27 27 28 28 28 26 25 25 25 24 23 23 23 23 23 23 23 23 23 23 22 22 22 24 25 25 25 24 22 21 21 23 24 23 23 22 22 23 23 24 25 26 26 28 29 30 30 31 31 31 31 31 31 31 31 32 32 32 33 33 34 34 34 34 35 35 35 36 36 36 36 36 36 35 35 35 35 35 35
27 27 27 27 27 27 27 27 27 27 26 26 26 26 27 26 25 24 23 23 23 23 23 23 22 22 22 21 21 22 23 25 26 25 23 21 20 20 20 21 21 21 21 21 22 22 22 22 23 24 25 27 28 29 29 29 30 30 31 31 31 31 32 32 32 32 33 33 33 33 33 34 34 35 35 36 36 36 36 35 35 35 35 34 34 34
28 27 27 27 27 27 26 26 25 25 25 24 24 25 26 26 25 24 24 23 23 22 22 21 20 20 19 20 20 20 22 24 24 23 21 20 19 19 19 20 20 20 20 21 21 21 21 21 21 22 23 25 26 28 29 29 30 30 31 31 31 31 32 32 32 32 32 32 32 33 33 33 34 35 35 35 35 35 36 35 35 35 35 34 34 34
27 26 26 26 26 27 27 27 26 26 26 25 24 23 23 23 23 23 22 22 22 21 20 19 18 18 18 18 18 18 20 21 21 21 20 20 19 19 20 21 21 20 20 21 22 22 22 22 22 23 24 25 26 28 29 30 30 31 31 31 31 31 31 31 31 31 31 32 32 32 33 33 34 34 35 35 35 35 35 35 35 34 34 33 33 33
26 26 26 26 26 26 26 26 26 27 27 26 26 25 24 23 23 22 21 20 20 20 19 18 17 17 17 17 17 18 19 19 20 20 21 21 20 20 21 21 22 22 22 22 23 23 24 23 24 25 25 26 26 28 29 30 31 31 31 31 31 31 31 31 31 31 31 31 31 31 32 32 33 33 33 34 34 34 34 34 33 33 33 32 32 32
24 24 24 25 25 25 25 26 26 26 26 26 27 26 25 24 22 21 20 20 20 19 18 17 17 17 17 17 17 17 18 19 20 21 22 22 21 21 21 22 22 23 23 22 23 24 25 25 25 25 25 25 26 27 28 29 30 30 30 30 30 30 30 30 30 30 30 30 30 31 31 31 31 31 32 32 32 32 32 32 32 32 31 31 31 31
22 23 23 23 24 24 24 24 24 25 26 26 26 26 25 23 22 21 20 20 20 19 18 17 17 17 17 17 17 18 18 18 19 21 23 22 20 20 20 21 22 23 22 22 22 22 22 22 22 22 23 24 24 25 26 27 27 28 28 28 29 29 29 29 29 29 29 29 29 30 30 30 30 31 31 31 31 31 31 31 31 31 31 30 30 31
21 21 22 22 22 22 22 22 22 23 24 25 25 25 24 23 22 21 21 20 20 19 19 18 18 18 17 17 17 17 17 17 19 22 23 21 19 19 20 21 22 22 22 21 20 19 18 19 20 21 21 22 22 22 23 24 25 25 25 26 26 27 27 27 28 28 28 28 29 29 29 30 30 30 30 30 31 31 31 31 31 31 30 30 30 31
19 20 19 20 21 21 21 21 21 22 22 23 23 23 22 22 22 21 21 21 20 20 19 19 18 18 18 17 17 16 15 17 19 21 22 22 21 21 22 22 22 22 22 21 19 17 17 17 18 19 20 21 21 22 22 22 23 23 23 24 24 25 26 27 27 27 28 28 28 29 29 29 29 30 30 30 30 31 31 31 31 31 30 30 30 31
19 18 18 19 19 19 20 20 20 20 20 21 21 21 22 22 22 21 21 21 21 21 20 20 19 19 18 18 17 17 16 17 19 21 23 23 22 22 22 21 20 20 20 20 19 18 17 17 17 18 19 19 20 20 22 22 22 22 22 22 23 24 25 26 26 26 26 27 28 28 28 29 29 29 29 30 30 30 31 31 31 31 30 30 30 31
18 17 17 18 18 18 18 18 18 19 19 19 19 20 21 21 22 22 22 22 22 22 21 20 19 18 18 18 17 17 17 18 19 21 23 22 21 20 19 19 19 18 19 19 19 19 17 17 17 17 18 19 19 20 20 21 22 22 22 22 22 22 24 25 25 25 25 26 26 27 27 28 28 29 29 29 30 30 31 31 31 31 30 30 30 31
18 18 18 18 18 18 18 18 18 18 19 19 19 20 20 21 22 22 23 22 22 22 21 20 19 18 17 17 17 17 17 17 19 21 22 20 19 19 19 18 18 18 18 18 18 18 17 17 17 17 17 18 19 19 20 20 21 22 22 22 22 22 22 23 23 23 24 24 25 25 26 26 27 28 29 29 29 30 30 31 31 31 31 30 30 30
17 18 18 18 17 17 18 18 18 18 18 18 18 19 19 20 20 21 21 21 21 20 20 19 19 18 18 17 17 16 16 17 18 20 21 20 20 19 18 18 17 17 17 17 17 17 17 17 17 17 17 17 18 18 19 20 20 22 23 23 22 22 22 23 23 23 23 23 24 24 25 25 26 26 27 28 29 29 30 30 31 31 31 31 30 30
17 18 18 18 17 17 17 18 18 18 18 18 18 18 18 19 19 19 20 20 20 20 19 19 19 19 18 18 17 17 17 17 18 20 21 20 20 19 18 17 17 17 17 17 17 17 17 17 17 18 18 17 17 17 18 19 21 22 23 23 23 23 23 24 24 24 24 24 24 24 24 24 25 25 26 27 28 29 29 30 30 30 31 31 31 31
17 17 18 18 17 17 17 18 18 18 18 17 18 18 18 18 19 19 19 20 21 20 20 20 20 20 20 19 19 19 18 18 19 20 21 21 20 20 19 18 18 19 18 18 17 17 17 17 17 17 17 17 16 17 17 18 20 21 21 22 22 23 23 25 25 26 25 25 24 24 24 24 25 25 26 27 27 28 28 29 30 30 30 30 31 31
17 17 17 18 17 17 17 17 17 17 17 17 17 17 18 18 18 19 19 20 20 20 19 19 19 20 22 22 22 22 22 22 22 22 22 22 22 21 20 19 19 19 19 19 19 19 18 17 17 16 16 16 17 17 18 19 19 19 20 21 21 22 22 24 25 25 25 25 25 25 25 25 25 26 26 26 26 26 27 27 28 29 30 30 30 30
17 17 17 17 17 17 17 17 17 17 17 17 18 18 18 19 19 19 19 19 19 19 20 19 19 20 22 22 23 23 23 23 24 24 25 24 23 22 21 20 20 20 20 20 20 20 19 18 17 17 17 17 17 17 18 18 18 19 19 20 20 21 21 22 23 24 24 24 25 25 25 25 25 26 26 26 26 26 26 26 27 27 28 28 28 29
17 17 17 17 17 17 17 17 17 17 17 18 19 19 19 19 19 19 19 19 19 19 19 20 20 20 21 21 22 22 22 24 25 25 25 25 25 23 22 21 20 20 20 20 20 20 20 19 18 18 18 17 17 17 17 17 18 19 19 19 19 19 20 21 22 22 22 23 23 23 23 24 24 25 25 25 26 26 26 26 26 26 27 26 26 26
17 17 17 17 17 17 17 17 18 18 18 19 19 19 19 19 18 18 18 18 19 19 19 19 19 19 19 20 20 20 20 22 23 23 24 25 25 24 22 21 20 20 20 20 20 20 19 19 19 18 18 17 17 17 18 18 18 20 20 19 18 19 20 21 21 22 22 22 22 22 23 23 24 24 24 25 25 25 26 26 26 26 26 26 26 26
17 17 17 17 17 17 17 18 19 19 19 19 18 18 18 18 18 18 18 18 18 18 18 18 18 18 18 18 19 19 20 21 22 23 24 24 24 23 22 21 20 20 20 19 19 19 20 20 19 19 18 18 18 17 17 17 18 19 20 19 19 20 20 21 21 21 21 22 22 22 23 23 23 23 24 24 24 25 26 26 26 27 27 27 27 26
17 17 17 17 17 18 18 19 19 19 19 18 18 18 18 18 18 18 19 18 18 18 18 18 18 18 17 17 18 18 20 22 22 22 23 24 24 23 22 22 21 20 19 19 19 19 19 20 20 19 19 19 19 18 18 18 18 19 19 19 20 19 18 19 20 21 21 21 22 22 22 22 22 23 23 24 24 25 26 26 27 27 28 27 27 27
17 17 17 18 18 18 19 18 18 18 18 17 17 17 18 18 19 19 19 18 18 18 18 18 18 18 18 17 17 17 18 19 21 22 22 22 23 24 23 22 22 21 21 20 19 19 19 19 19 18 18 19 19 18 18 18 18 18 18 19 20 19 19 19 20 20 21 21 22 22 22 22 22 23 23 24 24 25 26 26 26 26 27 27 28 28
17 18 18 18 18 18 18 18 17 17 17 17 17 17 18 18 19 19 19 18 19 19 18 18 18 18 17 17 17 17 17 17 18 19 21 22 22 23 23 22 22 21 21 20 20 19 18 18 18 18 18 18 18 18 18 18 18 18 19 19 20 20 20 20 21 21 21 21 21 21 22 23 23 23 23 23 23 24 25 25 26 26 27 27 27 28
18 18 18 18 18 17 17 17 17 17 17 17 17 17 18 18 19 19 19 19 19 19 19 19 18 17 17 17 17 17 17 17 17 17 18 19 20 21 22 22 21 20 20 20 20 19 19 18 18 18 18 18 18 18 18 18 17 17 18 19 19 19 19 20 20 21 21 21 21 22 22 23 23 23 22 22 23 23 24 25 26 26 27 27 27 28
18 18 17 17 17 17 17 17 17 17 17 17 17 18 18 18 18 19 19 19 19 19 19 19 18 17 17 17 17 16 16 16 17 17 17 17 18 19 19 20 21 21 20 20 20 20 20 20 20 19 19 18 17 17 17 17 18 18 18 18 18 19 19 19 20 20 21 21 21 22 23 23 23 22 22 22 22 23 23 24 25 26 27 27 28 28
18 18 17 17 17 17 17 17 17 17 17 17 17 18 18 18 19 19 19 19 19 19 19 18 17 17 17 17 17 17 17 17 17 17 17 17 18 18 19 19 19 20 20 21 21 21 21 22 22 22 20 19 18 17 17 17 18 18 18 19 19 19 19 19 20 20 21 22 23 24 24 23 23 22 22 22 22 22 23 23 24 26 26 27 28 28
18 18 17 17 17 17 17 17 17 17 17 17 17 18 18 19 20 20 19 19 18 18 18 17 17 17 17 17 17 17 17 17 17 17 17 17 18 18 19 19 19 19 20 20 21 21 21 22 22 22 22 21 20 19 18 18 18 19 19 19 19 19 19 20 20 21 21 22 24 25 25 24 23 23 23 22 22 22 22 23 23 25 26 26 27 28
18 18 18 18 17 17 17 17 17 17 17 18 18 18 18 19 19 19 19 18 18 18 18 17 17 17 17 17 17 17 17 17 17 17 17 17 18 18 19 19 19 19 19 19 19 19 19 20 21 22 23 23 22 21 20 19 19 19 20 20 20 20 20 20 21 21 22 22 24 25 26 25 25 25 24 23 23 22 22 22 23 24 25 26 27 28
18 18 18 18 18 18 17 17 18 18 18 18 18 18 18 18 18 18 18 18 18 18 17 17 17 17 17 17 17 17 17 17 17 17 17 18 18 18 19 19 18 18 18 17 17 17 17 16 17 17 20 22 23 23 22 21 20 20 20 20 20 21 21 21 21 22 23 23 23 24 25 25 25 25 25 24 23 23 22 22 23 24 25 26 26 27